Hourly Data Report for January 23, 2022

BANCROFT AUTO
ONTARIO
Current Station Operator: ECCC - MSC

45°04'17.000" N
77°52'44.000" W
330.70 m
616I001
71294
WRK

Download Data

Hourly Data (January 2022)
Hourly Data Report for January 23, 2022
TIME
LST
Temp Definition
°C
Dew Point Definition
°C
Rel Hum Definition
%
Precip. Amount Definition
mm

Wind Dir Definition
10's deg

Wind Spd Definition
km/h
Visibility Definition
km
Stn Press Definition
kPa
Hmdx Definition


Wind Chill Definition


Weather Definition


00:00 -7.8 -9.9 85 0.2 21 8   96.79   -12 LegendNANA
01:00 -8.0 -9.6 88 0.2 21 6   96.75   -11 LegendNANA
02:00 -8.1 -9.6 88 0.1 23 3   96.74   -10 LegendNANA
03:00 -8.7 -12.5 74 0.0 28 8   96.77   -13 LegendNANA
04:00 -9.6 -13.4 74 0.0 27 5   96.79   -12 LegendNANA
05:00 -10.5 -13.9 76 0.0 26 3   96.79   -12 LegendNANA
06:00 -10.7 -15.0 71 0.0 28 6   96.82   -14 LegendNANA
07:00 -12.4 -16.2 74 0.0 29 2   96.86   -14 LegendNANA
08:00 -14.3 -16.8 81 0.0 28 1   96.88   -15 LegendNANA
09:00 -13.3 -15.6 83 0.0 32 6   96.90   -17 LegendNANA
10:00 -12.6 -17.7 65 0.0 34 10   96.89   -18 LegendNANA
11:00 -12.7 -20.3 53 0.0 32 11   96.90   -19 LegendNANA
12:00 -12.3 -21.1 48 0.0 1 12   96.84   -19 LegendNANA
13:00 -12.1 -21.7 45 0.0 35 10   96.80   -18 LegendNANA
14:00 -11.9 -21.9 43 0.0 33 10   96.77   -18 LegendNANA
15:00 -11.6 -22.2 41 0.0 36 8   96.77   -16 LegendNANA
16:00 -12.0 -21.6 45 0.0 31 6   96.81   -16 LegendNANA
17:00 -16.5 -21.7 64 0.0 26 1   96.85   -17 LegendNANA
18:00 -20.0 -22.6 80 0.0   0   96.94     LegendNANA
19:00 -23.0 -25.0 84 0.0   0   96.98     LegendNANA
20:00 -25.0 -27.3 81 0.0   0   97.04     LegendNANA
21:00 -26.7 -29.2 80 0.0   0   97.09     LegendNANA
22:00 -28.2 -31.0 77 0.0   0   97.11     LegendNANA
23:00 -29.5 -32.3 77 0.0 0 1   97.11   -31 LegendNANA

Notes on Data Quality.

Legend

  • E = Estimated
  • M = Missing
  • NA = Not Available*
  • [empty] = Indicates an unobserved value
Date modified: